Location: Blanot
(47.1713°N, 4.2340°E)
Time: 08:41:12
(UTC+00:00)

Cosmos 1954 Rocket - Pass Details

Date: 14 July 2020
Orbit: 751 x 782 km, 74.0° (Epoch: 14 August)

Event Time Altitude Azimuth Distance (km) Brightness Sun altitude
Exits shadow 02:08:17 21° 200° (SSW) 1,678 5.2 -14.4°
Maximum altitude 02:11:52 89° 113° (ESE) 782 4.0 -14.1°
Drops below altitude 10° 02:17:12 10° 23° (NNE) 2,341 7.9 -13.5°
Sets 02:19:37 0° 23° (NNE) 3,276 9.0 -13.3°
